Location: Warner Observatory
(35.1353°N, 89.5455°W)
Time: 02:08:32
(UTC-06:00)

Amateur Radio Satellites - All Passes

Search period start: 04 December 2016 01:38
Search period end: 05 December 2016 01:38
Location: Warner Observatory, 35.1353°N, 89.5455°W

Satellite Date Start Highest point End Downlink Frequencies (MHz)
Time Altitude Azimuth
BUGSAT 1 04 Dec 01:40:31 01:42:08 12° 294° (WNW) 01:43:45 437.445
Gurwin Techsat 1B 04 Dec 01:45:46 01:51:03 62° 101° (E) 01:56:17 435.225
ITUPSAT 1 04 Dec 01:56:33 02:01:20 88° 257° (WSW) 02:06:09 437.325
O/OREOS (USA 219) 04 Dec 01:59:20 02:03:36 43° 66° (ENE) 02:07:51 437.305
Oscar 19 04 Dec 02:09:52 02:14:36 37° 289° (WNW) 02:19:21 437.125/150
KKS-1 04 Dec 02:12:44 02:14:22 12° 65° (ENE) 02:16:00 437.445
PHONESAT 2.4 04 Dec 02:24:07 02:26:33 31° 348° (NNW) 02:29:00 2401.200-2431.200
ITAMSAT 1 04 Dec 02:32:46 02:37:32 36° 98° (E) 02:42:16 435.822/435.867
Cosmos 2499 04 Dec 02:33:56 02:40:02 21° 292° (WNW) 02:46:22 435.465 / 435.565
AO-85 04 Dec 02:37:36 02:42:30 54° 302° (WNW) 02:47:05 145.980
AUBIESAT-1 04 Dec 02:40:20 02:42:51 16° 263° (W) 02:45:30 437.475
AO-7 04 Dec 02:55:37 03:03:20 39° 100° (E) 03:10:58 29.400- 29.500
CUBESAT XI-V 04 Dec 02:57:54 02:59:26 12° 65° (ENE) 03:00:57 437.345
MOZHAYETS 4 04 Dec 02:58:18 03:02:55 85° 261° (W) 03:07:31
SWISSCUBE 04 Dec 03:06:35 03:09:04 14° 267° (W) 03:11:34 437.505
BEESAT 04 Dec 03:10:50 03:13:23 14° 267° (W) 03:15:55 436.000
GONETS M04 04 Dec 03:18:53 03:21:41 12° 297° (WNW) 03:24:28
Gurwin Techsat 1B 04 Dec 03:27:31 03:30:25 15° 296° (WNW) 03:33:19 435.225
O/OREOS (USA 219) 04 Dec 03:40:18 03:42:33 14° 261° (W) 03:44:48 437.305
KKS-1 04 Dec 03:46:00 03:50:23 57° 259° (W) 03:54:48 437.445
STARS 04 Dec 03:58:29 04:02:54 87° 77° (ENE) 04:07:22 437.465
PHONESAT 2.4 04 Dec 03:59:56 04:02:12 25° 5° (N) 04:04:29 2401.200-2431.200
ITAMSAT 1 04 Dec 04:12:44 04:16:45 23° 293° (WNW) 04:20:45 435.822/435.867
CUBESAT XI-V 04 Dec 04:31:43 04:36:14 61° 260° (W) 04:40:47 437.345
AO-7 04 Dec 04:48:19 04:56:01 43° 296° (WNW) 05:03:41 29.400- 29.500
GOMX 1 04 Dec 04:52:50 04:57:12 24° 94° (E) 05:01:32 467.674
HORYU 2 04 Dec 04:54:53 04:59:03 38° 99° (E) 05:03:09 437.375
YUBILEINY 04 Dec 04:56:55 05:03:13 21° 69° (ENE) 05:09:29 435.215
BRITE-PL 04 Dec 05:04:04 05:09:30 72° 101° (ESE) 05:15:09 437.365/2234.400
BEESAT 3 04 Dec 05:10:30 05:14:21 81° 120° (ESE) 05:18:18 437.485
DOVE 4 04 Dec 05:16:07 05:19:16 16° 91° (E) 05:22:21 437.250
NOAA 18 04 Dec 05:21:12 05:23:28 12° 92° (E) 05:25:43 137.9125
Cosmos 2491 04 Dec 05:22:40 05:27:21 16° 79° (E) 05:32:01 435.465 / 435.565
LilacSat-2 04 Dec 05:23:22 05:26:08 19° 95° (E) 05:28:52 437.200
SO-50 04 Dec 05:28:55 05:33:24 64° 59° (ENE) 05:37:49 436.795
CUTE-I 04 Dec 05:29:35 05:33:59 26° 96° (E) 05:38:22 437.470
BEESAT 2 04 Dec 05:34:40 05:38:33 64° 116° (ESE) 05:42:29 435.950
PHONESAT 2.4 04 Dec 05:35:05 05:37:44 68° 21° (NNE) 05:40:22 2401.200-2431.200
Cosmos 2504 04 Dec 05:36:36 05:42:03 18° 66° (ENE) 05:47:19 435.465 / 435.565
STRAND 1 04 Dec 05:36:45 05:40:42 23° 67° (ENE) 05:44:40 437.568
Cubesat XI-IV 04 Dec 05:54:15 05:59:22 45° 100° (E) 06:04:26 437.490
RS-15 04 Dec 05:59:00 06:08:08 28° 102° (ESE) 06:17:33 29.354- 29.394
NOAA 15 04 Dec 05:59:17 06:04:29 58° 101° (E) 06:09:40 137.62
GOMX 1 04 Dec 06:30:13 06:35:17 39° 288° (WNW) 06:40:20 467.674
HORYU 2 04 Dec 06:32:28 06:35:14 16° 293° (WNW) 06:37:59 437.375
BRITE-PL 04 Dec 06:44:41 06:47:22 14° 295° (WNW) 06:50:06 437.365/2234.400
SEEDS 04 Dec 06:49:51 06:51:00 11° 92° (E) 06:52:09 437.485
CINEMA 3 04 Dec 06:50:00 06:54:22 34° 96° (E) 06:58:32 145.822/145.860
YUBILEINY 04 Dec 06:52:00 07:00:47 73° 267° (W) 07:09:34 435.215
DOVE 4 04 Dec 06:52:03 06:57:13 54° 286° (WNW) 07:02:14 437.250
LilacSat-2 04 Dec 06:57:22 07:00:20 22° 289° (WNW) 07:03:16 437.200
NOAA 18 04 Dec 06:59:03 07:04:34 71° 286° (WNW) 07:10:02 137.9125
AIST 1 04 Dec 07:02:00 07:06:25 71° 83° (E) 07:10:47
COMPASS 1 04 Dec 07:04:51 07:05:43 11° 92° (E) 07:06:34 437.405
CUTE-I 04 Dec 07:09:17 07:14:00 33° 291° (WNW) 07:18:42 437.470
PHONESAT 2.4 04 Dec 07:11:05 07:12:45 15° 215° (SW) 07:14:25 2401.200-2431.200
SO-50 04 Dec 07:12:41 07:13:15 10° 253° (WSW) 07:13:47 436.795
Cosmos 2491 04 Dec 07:14:07 07:22:56 87° 276° (W) 07:31:45 435.465 / 435.565
STRAND 1 04 Dec 07:14:54 07:19:37 36° 262° (W) 07:24:21 437.568
BEESAT 2 04 Dec 07:15:40 07:16:44 11° 313° (NW) 07:17:50 435.950
CUBEBUG 2 04 Dec 07:23:52 07:26:45 17° 93° (E) 07:29:33 437.445
Cosmos 2504 04 Dec 07:27:43 07:36:34 86° 265° (W) 07:44:52 435.465 / 435.565
HO-68 04 Dec 07:32:35 07:39:42 60° 102° (ESE) 07:46:46 435.675
CUTE 1.7 + AOD 2 04 Dec 07:35:12 07:39:24 65° 101° (ESE) 07:43:34 437.475
Cubesat XI-IV 04 Dec 07:35:16 07:39:03 20° 294° (WNW) 07:42:49 437.490
NOAA 15 04 Dec 07:40:40 07:43:44 16° 296° (WNW) 07:46:47 137.62
AIST 2 04 Dec 07:42:40 07:46:22 34° 113° (ESE) 07:50:07 435.215
CANX-2 04 Dec 07:52:46 07:56:57 63° 284° (WNW) 08:01:06 2200.000
Oscar 11 04 Dec 08:03:34 08:06:12 16° 94° (E) 08:08:50 145.826/435.025
RS-15 04 Dec 08:07:41 08:19:21 74° 301° (WNW) 08:31:40 29.354- 29.394
AAUSAT CUBESAT 2 04 Dec 08:09:25 08:13:28 53° 100° (E) 08:17:31 437.432
UWE-3 04 Dec 08:10:03 08:14:03 37° 98° (E) 08:17:56 435.000/436.395/437.385
UNISAT 6 04 Dec 08:17:24 08:20:01 15° 66° (ENE) 08:22:37 437.425
PRISM 04 Dec 08:22:27 08:26:30 82° 77° (ENE) 08:30:35 437.425
SEEDS 04 Dec 08:22:53 08:26:55 48° 286° (WNW) 08:30:56 437.485
CINEMA 3 04 Dec 08:27:38 08:31:12 21° 292° (WNW) 08:34:39 145.822/145.860
COMPASS 1 04 Dec 08:37:28 08:41:29 49° 285° (WNW) 08:45:30 437.405
TIGRISAT 04 Dec 08:46:28 08:50:29 28° 71° (ENE) 08:54:28 435.000
ANTELSAT 04 Dec 08:47:15 08:51:21 31° 71° (ENE) 08:55:27 437.575/2403.000
YUBILEINY 04 Dec 08:54:27 08:55:55 10° 284° (WNW) 08:57:23 435.215
ZACube-1 04 Dec 08:55:51 09:00:06 80° 103° (ESE) 09:04:15 437.345
JAS-2 04 Dec 08:57:31 08:58:57 11° 62° (ENE) 09:00:23 435.910
CUBEBUG 2 04 Dec 08:59:29 09:03:27 33° 288° (WNW) 09:07:16 437.445
FUNcube-1 04 Dec 09:04:49 09:09:04 87° 277° (W) 09:13:11 145.935
HUMSAT D 04 Dec 09:08:11 09:10:28 15° 93° (E) 09:12:46 437.325/437.525
Cosmos 2491 04 Dec 09:16:23 09:20:59 15° 295° (WNW) 09:25:37 435.465 / 435.565
HO-68 04 Dec 09:21:23 09:26:51 24° 298° (WNW) 09:32:18 435.675
AIST 2 04 Dec 09:21:56 09:24:54 19° 309° (NW) 09:27:54 435.215
Cosmos 2504 04 Dec 09:24:31 09:28:27 14° 283° (WNW) 09:32:18 435.465 / 435.565
DELFI C3 04 Dec 09:26:41 09:30:35 53° 100° (E) 09:34:29 145.870
CUSAT 1 04 Dec 09:27:15 09:30:56 84° 98° (E) 09:33:54 437.405
Oscar 11 04 Dec 09:38:29 09:42:24 35° 288° (WNW) 09:46:19 145.826/435.025
QB50P1 04 Dec 09:41:36 09:43:01 11° 65° (ENE) 09:44:26 145.935-145.965
DUCHIFAT 1 04 Dec 09:47:00 09:48:14 11° 65° (ENE) 09:49:28 145.980
AAUSAT CUBESAT 2 04 Dec 09:47:32 09:48:26 11° 294° (WNW) 09:49:19 437.432
UWE-3 04 Dec 09:47:35 09:50:09 16° 293° (WNW) 09:52:40 435.000/436.395/437.385
DANDE 04 Dec 09:51:02 09:56:01 40° 97° (E) 09:59:51 436.750
UNISAT 6 04 Dec 09:51:43 09:56:16 49° 260° (W) 10:00:48 437.425
POPSAT HIP 1 04 Dec 10:01:05 10:04:09 19° 69° (ENE) 10:07:12 437.405
TIGRISAT 04 Dec 10:23:16 10:27:04 24° 264° (W) 10:30:53 435.000
ANTELSAT 04 Dec 10:24:21 10:28:01 22° 265° (W) 10:31:41 437.575/2403.000
RS-15 04 Dec 10:25:27 10:34:28 24° 328° (NNW) 10:43:46 29.354- 29.394
Cosmos 2499 04 Dec 10:34:51 10:41:11 22° 68° (ENE) 10:47:10 435.465 / 435.565
CUBEBUG 1 04 Dec 10:35:21 10:36:57 12° 92° (E) 10:38:32 437.445
JAS-2 04 Dec 10:36:32 10:43:21 83° 76° (ENE) 10:49:21 435.910
HUMSAT D 04 Dec 10:42:29 10:46:10 34° 287° (WNW) 10:49:50 437.325/437.525
BUGSAT 1 04 Dec 10:50:03 10:53:20 22° 70° (ENE) 10:56:39 437.445
NANOSAT C BR1 04 Dec 10:55:49 11:00:05 83° 75° (ENE) 11:04:22 145.865
QB50P2 04 Dec 10:59:40 11:03:56 75° 258° (WSW) 11:08:14 145.880/145.840
POLYITAN 1 04 Dec 11:00:14 11:04:32 79° 260° (W) 11:08:50 437.675
AO-85 04 Dec 11:12:29 11:16:17 46° 58° (ENE) 11:20:00 145.980
QB50P1 04 Dec 11:14:06 11:18:16 53° 260° (W) 11:22:29 145.935-145.965
DUCHIFAT 1 04 Dec 11:19:14 11:23:23 55° 260° (W) 11:27:35 145.980
ESTCUBE 1 04 Dec 11:22:30 11:27:02 76° 103° (ESE) 11:31:32 437.505/2401.250
50 SAT 04 Dec 11:25:57 11:28:47 22° 97° (E) 11:31:36 437.505
SPROUT 04 Dec 11:27:37 11:30:47 20° 95° (E) 11:33:56 437.525
GONETS M04 04 Dec 11:28:59 11:37:21 48° 78° (ENE) 11:45:41
POPSAT HIP 1 04 Dec 11:35:54 11:39:41 30° 263° (W) 11:43:28 437.405
DANDE 04 Dec 11:36:03 11:38:30 14° 282° (WNW) 11:40:41 436.750
AISAT 04 Dec 11:37:44 11:42:02 45° 100° (E) 11:46:18 437.250
PCSat 04 Dec 11:41:17 11:46:42 84° 296° (WNW) 11:52:09 145.827
Oscar 19 04 Dec 11:45:10 11:49:12 24° 67° (ENE) 11:53:14 437.125/150
JUGNU 04 Dec 11:49:02 11:52:12 15° 170° (S) 11:55:20 437.505
CUBEBUG 1 04 Dec 12:09:10 12:13:28 51° 286° (WNW) 12:17:46 437.445
VELOX 1 04 Dec 12:14:41 12:19:08 70° 284° (WNW) 12:23:34 145.980
BUGSAT 1 04 Dec 12:25:04 12:28:32 25° 264° (W) 12:32:04 437.445
JAS-2 04 Dec 12:26:03 12:28:41 13° 267° (W) 12:31:15 435.910
Cosmos 2499 04 Dec 12:26:32 12:35:02 68° 268° (W) 12:42:54 435.465 / 435.565
DX 1 04 Dec 12:34:34 12:38:59 81° 284° (WNW) 12:43:22 434.975-435.025
UKube-1 04 Dec 12:45:37 12:49:58 82° 286° (WNW) 12:54:18 .
RS-15 04 Dec 12:48:06 12:53:56 14° 5° (N) 12:59:45 29.354- 29.394
AO-85 04 Dec 12:55:31 12:56:10 10° 252° (WSW) 12:56:50 145.980
TISAT 1 04 Dec 12:55:59 12:59:47 31° 98° (E) 13:03:30 437.305
50 SAT 04 Dec 12:59:30 13:01:53 17° 290° (WNW) 13:04:17 437.505
SPROUT 04 Dec 13:02:59 13:06:41 28° 289° (WNW) 13:10:20 437.525
Gurwin Techsat 1B 04 Dec 13:03:33 13:08:50 71° 75° (ENE) 13:14:08 435.225
AISAT 04 Dec 13:15:36 13:18:04 15° 294° (WNW) 13:20:33 437.250
Oscar 19 04 Dec 13:23:39 13:28:16 35° 262° (W) 13:32:57 437.125/150
SRMSAT 04 Dec 13:25:48 13:27:17 11° 166° (SSE) 13:28:47 437.500
GONETS M04 04 Dec 13:26:24 13:33:45 32° 275° (W) 13:41:08
PCSat 04 Dec 13:28:58 13:30:54 12° 314° (NW) 13:32:51 145.827
SWISSCUBE 04 Dec 13:31:02 13:33:58 16° 94° (E) 13:36:53 437.505
BEESAT 3 04 Dec 13:31:10 13:33:56 18° 51° (NE) 13:36:40 437.485
BEESAT 04 Dec 13:35:19 13:38:13 16° 94° (E) 13:41:06 436.000
JUGNU 04 Dec 13:36:36 13:40:28 18° 180° (S) 13:44:21 437.505
ITAMSAT 1 04 Dec 13:47:29 13:52:21 41° 71° (ENE) 13:57:14 435.822/435.867
AO-7 04 Dec 13:51:11 13:58:45 41° 64° (ENE) 14:06:21 29.400- 29.500
BEESAT 2 04 Dec 13:56:25 13:58:53 16° 50° (NE) 14:01:21 435.950
ITUPSAT 1 04 Dec 14:00:38 14:04:48 30° 97° (E) 14:08:56 437.325
AUBIESAT-1 04 Dec 14:20:00 14:24:24 45° 103° (ESE) 14:28:36 437.475
M-CUBED/EXP-1 PRIME 04 Dec 14:30:25 14:35:07 77° 107° (ESE) 14:39:36 437.505
TISAT 1 04 Dec 14:32:16 14:35:08 18° 292° (WNW) 14:37:59 437.305
Gurwin Techsat 1B 04 Dec 14:47:31 14:49:13 11° 269° (W) 14:50:54 435.225
MOZHAYETS 4 04 Dec 14:56:55 15:00:50 28° 96° (E) 15:04:43
RS-15 04 Dec 15:02:00 15:12:33 31° 40° (NE) 15:22:48 29.354- 29.394
SWISSCUBE 04 Dec 15:07:25 15:11:55 43° 288° (WNW) 15:16:22 437.505
BEESAT 3 04 Dec 15:08:01 15:11:38 34° 247° (WSW) 15:15:15 437.485
BEESAT 04 Dec 15:11:39 15:16:10 43° 288° (WNW) 15:20:38 436.000
SRMSAT 04 Dec 15:11:59 15:15:41 17° 175° (S) 15:19:22 437.500
JUGNU 04 Dec 15:25:46 15:28:44 14° 191° (S) 15:31:43 437.505
ITAMSAT 1 04 Dec 15:28:07 15:31:55 20° 265° (W) 15:35:44 435.822/435.867
BEESAT 2 04 Dec 15:33:03 15:36:52 42° 246° (WSW) 15:40:38 435.950
ITUPSAT 1 04 Dec 15:38:40 15:42:27 24° 292° (WNW) 15:46:13 437.325
KKS-1 04 Dec 15:40:15 15:44:20 33° 98° (E) 15:48:21 437.445
AO-7 04 Dec 15:43:47 15:51:24 40° 260° (W) 15:59:06 29.400- 29.500
ISS 04 Dec 15:49:04 15:52:07 37° 133° (SE) 15:55:12 145.825
HORYU 2 04 Dec 15:49:58 15:53:38 25° 69° (ENE) 15:57:18 437.375
STARS 04 Dec 15:51:55 15:55:10 20° 95° (E) 15:58:22 437.465
AUBIESAT-1 04 Dec 15:55:29 15:58:20 17° 299° (WNW) 16:01:10 437.475
GOMX 1 04 Dec 15:59:13 16:01:46 15° 65° (ENE) 16:04:23 467.674
M-CUBED/EXP-1 PRIME 04 Dec 16:07:40 16:08:51 11° 302° (WNW) 16:10:02 437.505
O/OREOS (USA 219) 04 Dec 16:07:55 16:12:30 84° 292° (WNW) 16:17:04 437.305
AIST 2 04 Dec 16:08:42 16:09:54 11° 46° (NE) 16:11:07 435.215
BRITE-PL 04 Dec 16:12:29 16:16:33 51° 74° (ENE) 16:20:52 437.365/2234.400
DOVE 4 04 Dec 16:20:37 16:21:24 10° 62° (ENE) 16:22:11 437.250
CUBESAT XI-V 04 Dec 16:31:21 16:35:46 41° 99° (E) 16:40:11 437.345
MOZHAYETS 4 04 Dec 16:34:15 16:37:50 23° 291° (WNW) 16:41:24
NOAA 18 04 Dec 16:43:34 16:47:25 20° 64° (ENE) 16:51:16 137.9125
CUTE-I 04 Dec 16:48:09 16:52:52 32° 69° (ENE) 16:57:34 437.470
SRMSAT 04 Dec 17:00:29 17:04:07 17° 186° (S) 17:07:44 437.500
Cubesat XI-IV 04 Dec 17:12:54 17:18:08 55° 73° (ENE) 17:23:23 437.490
RS-15 04 Dec 17:14:11 17:26:35 84° 244° (WSW) 17:38:27 29.354- 29.394
NOAA 15 04 Dec 17:16:06 17:21:18 67° 74° (ENE) 17:26:30 137.62
KKS-1 04 Dec 17:17:27 17:20:36 19° 292° (WNW) 17:23:45 437.445
ISS 04 Dec 17:26:11 17:28:43 20° 328° (NNW) 17:31:16 145.825
HORYU 2 04 Dec 17:26:21 17:30:03 25° 263° (W) 17:33:46 437.375
STARS 04 Dec 17:27:37 17:31:30 30° 289° (WNW) 17:35:20 437.465
Cosmos 2491 04 Dec 17:28:56 17:37:01 40° 76° (ENE) 17:45:02 435.465 / 435.565
LilacSat-2 04 Dec 17:34:55 17:38:47 75° 260° (W) 17:42:39 437.200
GOMX 1 04 Dec 17:35:05 17:39:19 46° 262° (W) 17:43:54 467.674
AIST 2 04 Dec 17:44:38 17:48:52 74° 242° (WSW) 17:53:04 435.215
CINEMA 3 04 Dec 17:48:13 17:52:03 23° 68° (ENE) 17:55:58 145.822/145.860
DOVE 4 04 Dec 17:53:37 17:58:16 76° 259° (W) 18:03:15 437.250
YUBILEINY 04 Dec 17:54:13 18:01:01 26° 83° (E) 18:07:50 435.215
BRITE-PL 04 Dec 17:54:56 17:55:28 10° 270° (W) 17:56:01 437.365/2234.400
HO-68 04 Dec 17:58:13 18:04:21 32° 65° (ENE) 18:10:31 435.675
CUBESAT XI-V 04 Dec 18:09:48 18:12:46 17° 293° (WNW) 18:15:45 437.345
Cosmos 2504 04 Dec 18:12:58 18:16:52 14° 77° (ENE) 18:20:50 435.465 / 435.565
CUBEBUG 2 04 Dec 18:19:53 18:21:39 12° 65° (ENE) 18:23:26 437.445
NOAA 18 04 Dec 18:22:17 18:27:37 50° 259° (W) 18:33:02 137.9125
CUTE 1.7 + AOD 2 04 Dec 18:24:50 18:28:29 29° 72° (ENE) 18:32:09 437.475
CUTE-I 04 Dec 18:28:18 18:32:50 28° 264° (W) 18:37:23 437.470
CANX-2 04 Dec 18:41:56 18:46:05 57° 75° (ENE) 18:50:13 2200.000
SRMSAT 04 Dec 18:51:43 18:52:30 10° 195° (SSW) 18:53:18 437.500
Cubesat XI-IV 04 Dec 18:55:18 18:58:29 16° 267° (W) 19:01:40 437.490
AAUSAT CUBESAT 2 04 Dec 18:56:53 19:00:07 23° 71° (ENE) 19:03:21 437.432
NOAA 15 04 Dec 18:59:33 19:01:28 12° 268° (W) 19:03:24 137.62
UWE-3 04 Dec 19:03:48 19:07:26 23° 70° (ENE) 19:11:04 435.000/436.395/437.385
SEEDS 04 Dec 19:10:49 19:14:57 72° 77° (ENE) 19:19:07 437.485
COMPASS 1 04 Dec 19:24:26 19:28:32 68° 75° (ENE) 19:32:38 437.405
CINEMA 3 04 Dec 19:24:33 19:28:55 33° 264° (W) 19:33:26 145.822/145.860
Cosmos 2491 04 Dec 19:25:54 19:33:41 38° 273° (W) 19:41:27 435.465 / 435.565
AIST 1 04 Dec 19:27:47 19:31:53 47° 93° (E) 19:36:02
STRAND 1 04 Dec 19:28:07 19:33:14 84° 283° (WNW) 19:38:19 437.568
RS-15 04 Dec 19:30:05 19:37:05 18° 262° (W) 19:43:59 29.354- 29.394
SO-50 04 Dec 19:39:40 19:44:13 45° 115° (ESE) 19:48:44 436.795
HO-68 04 Dec 19:45:06 19:51:48 43° 260° (W) 19:58:35 435.675
ZACube-1 04 Dec 19:47:53 19:52:10 41° 73° (ENE) 19:56:26 437.345
YUBILEINY 04 Dec 19:48:40 19:57:09 57° 280° (W) 20:05:44 435.215
CUBEBUG 2 04 Dec 19:52:59 19:57:41 64° 260° (W) 20:02:24 437.445
FUNcube-1 04 Dec 19:56:26 20:00:48 48° 74° (ENE) 20:05:09 145.935
CUSAT 1 04 Dec 20:00:21 20:03:46 33° 81° (E) 20:08:06 437.405
Cosmos 2504 04 Dec 20:00:34 20:08:46 87° 93° (E) 20:17:32 435.465 / 435.565
CUTE 1.7 + AOD 2 04 Dec 20:01:23 20:04:20 18° 266° (W) 20:07:16 437.475
PRISM 04 Dec 20:08:26 20:10:41 14° 94° (E) 20:12:55 437.425
DELFI C3 04 Dec 20:09:56 20:12:46 19° 70° (ENE) 20:15:37 145.870
Oscar 11 04 Dec 20:29:16 20:33:34 73° 258° (WSW) 20:37:54 145.826/435.025
AAUSAT CUBESAT 2 04 Dec 20:32:12 20:35:28 23° 264° (W) 20:38:44 437.432
PCSat 04 Dec 20:32:34 20:37:38 39° 58° (ENE) 20:42:40 145.827
DANDE 04 Dec 20:32:47 20:33:45 11° 78° (ENE) 20:34:46 436.750
UWE-3 04 Dec 20:39:35 20:43:41 30° 263° (W) 20:47:47 435.000/436.395/437.385
AIST 1 04 Dec 21:08:16 21:09:44 11° 288° (WNW) 21:11:13
SO-50 04 Dec 21:21:23 21:24:52 20° 310° (NW) 21:28:21 436.795
ZACube-1 04 Dec 21:25:50 21:28:33 16° 267° (W) 21:31:16 437.345
HUMSAT D 04 Dec 21:29:33 21:33:48 81° 258° (WSW) 21:38:01 437.325/437.525
FUNcube-1 04 Dec 21:35:01 21:37:13 13° 268° (W) 21:39:25 145.935
PRISM 04 Dec 21:42:13 21:46:04 37° 287° (WNW) 21:49:55 437.425
CUSAT 1 04 Dec 21:43:25 21:45:35 14° 265° (W) 21:48:00 437.405
DELFI C3 04 Dec 21:44:13 21:47:24 24° 264° (W) 21:50:38 145.870
UNISAT 6 04 Dec 21:46:49 21:51:01 42° 99° (E) 21:55:05 437.425
Cosmos 2504 04 Dec 21:58:16 22:03:19 17° 295° (WNW) 22:08:33 435.465 / 435.565
DANDE 04 Dec 22:14:12 22:16:17 17° 264° (W) 22:18:38 436.750
PCSat 04 Dec 22:16:29 22:20:46 24° 253° (WSW) 22:25:01 145.827
TIGRISAT 04 Dec 22:17:09 22:21:34 88° 281° (W) 22:25:51 435.000
ANTELSAT 04 Dec 22:18:13 22:22:37 80° 285° (WNW) 22:26:55 437.575/2403.000
ESTCUBE 1 04 Dec 22:18:43 22:22:58 45° 73° (ENE) 22:27:14 437.505/2401.250
SPROUT 04 Dec 22:20:02 22:21:09 11° 65° (ENE) 22:22:15 437.525
ISS 04 Dec 22:20:08 22:22:11 15° 29° (NNE) 22:24:13 145.825
AISAT 04 Dec 22:32:09 22:35:50 27° 70° (ENE) 22:39:33 437.250
NANOSAT C BR1 04 Dec 22:44:33 22:47:16 17° 94° (E) 22:49:58 145.865
QB50P2 04 Dec 22:48:28 22:51:45 22° 95° (E) 22:55:01 145.880/145.840
POLYITAN 1 04 Dec 22:49:07 22:52:19 21° 95° (E) 22:55:29 437.675
CUBEBUG 1 04 Dec 23:01:22 23:05:42 85° 80° (E) 23:10:06 437.445
QB50P1 04 Dec 23:02:13 23:05:56 29° 97° (E) 23:09:38 145.935-145.965
DUCHIFAT 1 04 Dec 23:06:45 23:10:23 28° 97° (E) 23:14:00 145.980
Cosmos 2499 04 Dec 23:08:00 23:13:29 19° 80° (E) 23:19:06 435.465 / 435.565
VELOX 1 04 Dec 23:08:23 23:12:44 67° 75° (ENE) 23:17:08 145.980
POPSAT HIP 1 04 Dec 23:23:15 23:27:24 52° 100° (E) 23:31:31 437.405
UNISAT 6 04 Dec 23:24:56 23:27:17 14° 294° (WNW) 23:29:38 437.425
PHONESAT 2.4 04 Dec 23:26:23 23:28:05 15° 145° (SE) 23:29:46 2401.200-2431.200
DX 1 04 Dec 23:26:37 23:30:51 56° 74° (ENE) 23:35:08 434.975-435.025
50 SAT 04 Dec 23:30:20 23:33:49 71° 258° (WSW) 23:37:20 437.505
JAS-2 04 Dec 23:33:57 23:39:10 86° 284° (WNW) 23:44:39 435.910
UKube-1 04 Dec 23:36:38 23:40:49 53° 74° (ENE) 23:45:02 .
TISAT 1 04 Dec 23:45:20 23:47:59 16° 68° (ENE) 23:50:39 437.305
SPROUT 04 Dec 23:52:18 23:56:31 57° 260° (W) 00:00:47 437.525
ISS 04 Dec 23:55:41 23:58:57 63° 225° (SW) 00:02:12 145.825
ESTCUBE 1 04 Dec 23:57:46 23:59:58 13° 267° (W) 00:02:11 437.505/2401.250
AISAT 05 Dec 00:08:44 00:12:13 23° 264° (W) 00:15:44 437.250
BUGSAT 1 05 Dec 00:09:11 00:13:20 57° 100° (E) 00:17:23 437.445
NANOSAT C BR1 05 Dec 00:19:15 00:23:02 33° 288° (WNW) 00:26:48 145.865
QB50P2 05 Dec 00:23:58 00:27:27 25° 290° (WNW) 00:30:56 145.880/145.840
POLYITAN 1 05 Dec 00:24:30 00:28:03 27° 289° (WNW) 00:31:34 437.675
GONETS M04 05 Dec 00:25:33 00:34:06 62° 91° (E) 00:42:37
SWISSCUBE 05 Dec 00:35:13 00:37:39 14° 65° (ENE) 00:40:05 437.505
QB50P1 05 Dec 00:38:27 00:41:28 19° 291° (WNW) 00:44:28 145.935-145.965
BEESAT 05 Dec 00:39:27 00:41:51 14° 65° (ENE) 00:44:15 436.000
DUCHIFAT 1 05 Dec 00:42:48 00:45:52 20° 291° (WNW) 00:48:54 145.980
Cosmos 2499 05 Dec 00:57:03 01:05:27 78° 277° (W) 01:14:22 435.465 / 435.565
PHONESAT 2.4 05 Dec 01:00:27 01:03:06 68° 338° (NNW) 01:05:45 2401.200-2431.200
POPSAT HIP 1 05 Dec 01:01:20 01:02:39 11° 295° (WNW) 01:03:59 437.405
AUBIESAT-1 05 Dec 01:02:33 01:06:07 31° 66° (ENE) 01:09:56 437.475
ITUPSAT 1 05 Dec 01:04:29 01:08:22 25° 69° (ENE) 01:12:14 437.325
DX 1 05 Dec 01:06:51 01:07:20 10° 268° (W) 01:07:48 434.975-435.025
M-CUBED/EXP-1 PRIME 05 Dec 01:13:15 01:17:07 52° 69° (ENE) 01:21:19 437.505
UKube-1 05 Dec 01:16:14 01:17:07 11° 268° (W) 01:18:02 .
TISAT 1 05 Dec 01:19:25 01:23:18 35° 262° (W) 01:27:13 437.305
AO-85 05 Dec 01:22:53 01:27:33 38° 114° (ESE) 01:31:56 145.980
Gurwin Techsat 1B 05 Dec 01:23:18 01:28:11 36° 98° (E) 01:33:03 435.225
